Location: Al Mulaqqa?ah
(24.1833°N, 32.8833°E)
Time: 22:24:16
(UTC+00:00)

GPS 2-18 Rocket1 - Visible Passes

Search period start: 28 January 2022 00:00
Search period end: 07 February 2022 00:00
Orbit: 453 x 503 km, 20.9° (Epoch: 28 January)

Date Brightness Start Highest point End Pass type
(mag) Time Alt. Az. Time Alt. Az. Time Alt. Az.
28 Jan 4.4 16:03:49 10° SW 16:07:11 30° SSE 16:10:36 10° ESE visible
28 Jan 5.6 17:43:26 10° WSW 17:44:51 21° WSW 17:44:51 21° WSW visible
29 Jan 3.8 17:12:41 10° WSW 17:15:58 46° SSW 17:15:58 46° SSW visible
30 Jan 3.6 16:41:57 10° WSW 16:45:38 49° S 16:47:05 31° ESE visible
31 Jan 3.7 16:11:12 10° WSW 16:14:51 49° S 16:18:12 12° ESE visible
31 Jan 5.9 17:51:14 10° W 17:52:17 17° WSW 17:52:17 17° WSW visible
01 Feb 4.2 17:20:29 10° W 17:23:25 39° SW 17:23:25 39° SW visible
02 Feb 3.9 16:49:42 10° W 16:53:17 42° S 16:54:35 30° SE visible
03 Feb 3.9 16:18:56 10° WSW 16:22:28 42° S 16:25:47 12° ESE visible
03 Feb 6.2 17:59:27 10° WSW 17:59:52 12° WSW 17:59:52 12° WSW visible
04 Feb 5.2 17:28:40 10° WSW 17:31:07 21° SSW 17:31:07 21° SSW visible
05 Feb 5.1 16:57:54 10° WSW 17:00:43 20° SSW 17:02:26 15° SSE visible
06 Feb 5.2 16:27:06 10° WSW 16:29:52 20° SSW 16:32:41 10° SSE visible
